"Pseudo-MPEC" for C089ER1

Created 2019 Apr 22 3:07:07 UT using Find_Orb

Click here for an explanation of pseudo-MPECs

 
 Astrometry: 
     C089ER1  C2019 04 14.39266 15 02 18.01 +06 11 52.9    ~4J67 19.5 GVNEOCP703
     C089ER1  C2019 04 14.39802 15 02 21.44 +06 14 24.4    ~4EC3 20.0 GVNEOCP703
     C089ER1  C2019 04 14.40338 15 02 24.86 +06 16 54.6    ~4EC3 19.3 GVNEOCP703
     C089ER1  C2019 04 14.40873 15 02 28.28 +06 19 25.2    ~4EC3 19.7 GVNEOCP703
     C089ER1  C2019 04 14.48297 15 03 16.32 +06 54 13.0    ~4EC3 19.3 GVNEOCPI52
     C089ER1  C2019 04 14.48356 15 03 16.66 +06 54 28.9    ~4EC3 19.2 GVNEOCPI52
     C089ER1  C2019 04 14.48416 15 03 17.07 +06 54 45.7    ~4EC3 19.1 GVNEOCPI52
     C089ER1  C2019 04 14.48475 15 03 17.44 +06 55 02.4    ~4EC3 19.1 GVNEOCPI52
     C089ER1  C2019 04 14=!LD_s%O4vnpRAstrometryZ,LqPty^50sk/363Pk9uP2TYFLUoBF51
     C089ER1  C2019 04 14b)O4+?N^WcnQ.$dxkoi+D?=xRdJb3lJu8p1Ddia3@J7^H(S83w1+F51
     C089ER1  C2019 04 14OIy\FPRredacted;uBHVTltC--cWDG'UrnR)y(GH['^[161T^g.*F51
     C089ER1 pC2019 04 14;QlInIGclickoONJ!wW_v9`yNh70yNASfb;K#F=L:fN0pV4qSkV*L01
     C089ER1 pC2019 04 14*=)3_@C^Hl5a:].WdC82mH!elu,QlidQcajfY6U9wov+L`bIRNq!L01
     C089ER1 KC2019 04 14O6Wv1c'X,E/I,S5?ijXA9T?ohi!=:lP3BavIs\nhere]`T6usZ@QL01
     C089ER1 KC2019 04 14UY`[y/$B0A\gg20MQ3Gforg(*M6tI0.C;cUyUd#QOx3p?yJOM!=NL01
     C089ER1 IC2019 04 14Cy2p5`syo;explanation2sJ1(i4Zr2GhRG8[NnRV7QhagN[fwQ[L01
     C089ER1  C2019 04 15.26902 15 12 50.08 +13 00 49.4    ~4F6m 19.4 GVNEOCPI52
     C089ER1  C2019 04 15.26941 15 12 50.32 +13 01 01.1    ~4F6m 19.4 GVNEOCPI52
     C089ER1  C2019 04 15.26979 15 12 50.60 +13 01 11.5    ~4F6m 18.7 GVNEOCPI52
     C089ER1  C2019 04 16.27002 15 24 59.30 +20 30 30.6    ~4G6m 19.6 GVNEOCPI52
     C089ER1  C2019 04 16.27059 15 24 59.70 +20 30 44.0    ~4G6m 21.1 GVNEOCPI52
     C089ER1  C2019 04 16.27116 15 25 00.11 +20 31 00.0    ~4G6m 20.3 GVNEOCPI52
     C089ER1 KC2019 04 19.21765216 01 48.91 +38 41 05.8    ~4J67 21.0 GVNEOCPH01
     C089ER1 KC2019 04 19.22683316 01 55.55 +38 43 55.5    ~4J67 20.3 GVNEOCPH01
     C089ER1 KC2019 04 19.23251416 01 59.62 +38 45 40.1    ~4J67 20.7 GVNEOCPH01
     C089ER1 KC2019 04 19.23832816 02 03.79 +38 47 27.1    ~4J67 21.1 GVNEOCPH01

Station data:
(703) Catalina Sky Survey  (N32.417006 W110.732640)  US/Arizona.  Observers
   T. A. Pruyne, B. M. Africano, E. J. Christensen, G. A. Farneth, D. C.
   Fuls, A. R. Gibbs, A. D. Grauer, H. Groeller, J. A. Johnson, R. A.
   Kowalski, S. M. Larson, G. J. Leonard, R. L. Seaman, F. C. Shelly. 0.68 m
   Schmidt + 10K CCD.
(F51) Pan-STARRS 1, Haleakala  (N20.707235 W156.255910)  US/Hawaii.
   Observers N. Primak, A. Schultz, S. Watters, J. Thiel, T. Goggia. Measurer
   PS1 Science Consortium. 1.8-m Ritchey-Chrétien + CCD.
(H01) Magdalena Ridge Observatory, Socorro  (N33.984833 W107.189333)  US/New
   Mexico.  Observers W. H. Ryan, E. V. Ryan. Measurer W. H. Ryan. 2.4-m
   f/8.9 reflector + CCD.
(I52) Steward Observatory, Mt. Lemmon Station  (N32.442547 W110.788920)
   US/Arizona.  Observers T. A. Pruyne, B. M. Africano, E. J. Christensen, G.
   A. Farneth, D. C. Fuls, A. R. Gibbs, A. D. Grauer, H. Groeller, J. A.
   Johnson, R. A. Kowalski, S. M. Larson, G. J. Leonard, R. L. Seaman, F. C.
   Shelly. 1.0-m reflector + CCD.
(L01) Višnjan Observatory, Tičan  (N45.290900 E13.749300)  Croatia.
   Observers K. Korlević, E. Pettarin. Measurer E. Pettarin. 1.0-m f/2.9
   reflector + CCD.

Orbital elements:  C089ER1
   Perihelion 2019 May 28.372782 +/- 0.0534 TT =  8:56:48 (JD 2458631.872782)
Epoch 2019 Apr 19.0 TT = JDT 2458592.5   Earth MOID: 0.0457   Ma: 0.0651
M 331.31891654 +/- 0.06             (J2000 ecliptic)          AutoNEOCP
n   0.72844950 +/- 0.000787         Peri.   48.79259 +/- 0.048
a   1.22330968 +/- 0.000881         Node   202.00762 +/- 0.0015
e   0.1866712 +/- 0.000548          Incl.   20.99185 +/- 0.033
P   1.35/494.19d           H 25.0   G  0.15   U  7.9  
q 0.99495291 +/- 4.67e-5    Q 1.45166645 +/- 0.00172
From 26 observations 2019 Apr. 14-19; mean residual 0".31
Residuals in arcseconds: 
190414 703  .22-  .22-    190414 F51  .10+  .08+    190415 I52  .54+  .39+    
190414 703  .12-  .40+    190414 F51  .09+  .02+    190416 I52  .31-  .63+    
190414 703  .21-  .26-    190414 L01  .03-  .68-    190416 I52  .18-  .95-    
190414 703  .25-  .22-    190414 L01  .07-  .27-    190416 I52  .10+  .08+    
190414 I52  .55+  .65+    190414 L01  .04-  .23-    190419 H01  .04+  .06-    
190414 I52  .14-  .02-    190414 L01  .28-  .13+    190419 H01  .14+  .12+    
190414 I52  .12+  .07-    190414 L01  .07+  .68+    190419 H01  .08-  .00     
190414 I52  .13-  .07+    190415 I52  .47+  .29-    190419 H01  .10-  .02-    
190414 F51  .10+  .20-    190415 I52  .17+  .56+    

Ephemerides (geocentric):
Date (UTC) HH   RA              Dec         delta   r     elong  mag " sig PA
---- -- -- --  -------------   -----------  ------ ------ -----  --- ---- ---
2019 04 22 03  16 37 53.687   +50 16 58.52  .07110 1.0298 108.5 21.7 .292 145
2019 04 22 04  16 38 24.271   +50 24 39.75  .07132 1.0298 108.4 21.8 .294 145
2019 04 22 05  16 38 54.832   +50 32 17.68  .07153 1.0297 108.3 21.8 .296 146
2019 04 22 06  16 39 25.368   +50 39 52.34  .07174 1.0296 108.1 21.8 .297 147
2019 04 22 07  16 39 55.881   +50 47 23.74  .07195 1.0295 108.0 21.8 .299 147
2019 04 22 08  16 40 26.369   +50 54 51.93  .07217 1.0295 107.8 21.8 .301 148
2019 04 22 09  16 40 56.832   +51 02 16.91  .07238 1.0294 107.7 21.8 .303 149
2019 04 22 10  16 41 27.270   +51 09 38.70  .07260 1.0293 107.5 21.8 .305 149
2019 04 22 11  16 41 57.683   +51 16 57.35  .07281 1.0292 107.4 21.8 .307 150
2019 04 22 12  16 42 28.071   +51 24 12.85  .07303 1.0291 107.3 21.8 .309 150
2019 04 22 13  16 42 58.432   +51 31 25.24  .07324 1.0291 107.1 21.8 .311 151
2019 04 22 14  16 43 28.768   +51 38 34.55  .07346 1.0290 107.0 21.9 .313 152
2019 04 22 15  16 43 59.077   +51 45 40.78  .07367 1.0289 106.8 21.9 .315 152
2019 04 22 16  16 44 29.359   +51 52 43.97  .07389 1.0288 106.7 21.9 .317 153
2019 04 22 17  16 44 59.615   +51 59 44.13  .07411 1.0288 106.6 21.9 .319 153
2019 04 22 18  16 45 29.844   +52 06 41.30  .07433 1.0287 106.4 21.9 .321 154
2019 04 22 19  16 46 00.045   +52 13 35.48  .07454 1.0286 106.3 21.9 .324 155
2019 04 22 20  16 46 30.218   +52 20 26.71  .07476 1.0285 106.2 21.9 .326 155
2019 04 22 21  16 47 00.364   +52 27 15.00  .07498 1.0285 106.0 21.9 .328 156
2019 04 22 22  16 47 30.481   +52 34 00.37  .07520 1.0284 105.9 21.9 .331 156
2019 04 22 23  16 48 00.570   +52 40 42.85  .07542 1.0283 105.8 21.9 .333 157
2019 04 23 00  16 48 30.631   +52 47 22.46  .07564 1.0282 105.7 22.0 .335 157
2019 04 23 01  16 49 00.662   +52 53 59.22  .07586 1.0282 105.5 22.0 .338 158
2019 04 23 02  16 49 30.664   +53 00 33.15  .07608 1.0281 105.4 22.0 .340 159
2019 04 23 03  16 50 00.637   +53 07 04.27  .07630 1.0280 105.3 22.0 .343 159
2019 04 23 04  16 50 30.581   +53 13 32.60  .07652 1.0279 105.1 22.0 .345 160
2019 04 23 05  16 51 00.494   +53 19 58.16  .07675 1.0279 105.0 22.0 .348 160
2019 04 23 06  16 51 30.377   +53 26 20.98  .07697 1.0278 104.9 22.0 .350 161
2019 04 23 07  16 52 00.230   +53 32 41.07  .07719 1.0277 104.8 22.0 .353 161
2019 04 23 08  16 52 30.052   +53 38 58.45  .07741 1.0276 104.6 22.0 .355 162
2019 04 23 09  16 52 59.844   +53 45 13.15  .07764 1.0276 104.5 22.0 .358 162
2019 04 23 10  16 53 29.604   +53 51 25.19  .07786 1.0275 104.4 22.1 .361 163
2019 04 23 11  16 53 59.333   +53 57 34.58  .07809 1.0274 104.3 22.1 .364 163
2019 04 23 12  16 54 29.031   +54 03 41.34  .07831 1.0274 104.2 22.1 .366 164
2019 04 23 13  16 54 58.697   +54 09 45.49  .07854 1.0273 104.0 22.1 .369 164
2019 04 23 14  16 55 28.330   +54 15 47.06  .07876 1.0272 103.9 22.1 .372 165
2019 04 23 15  16 55 57.932   +54 21 46.07  .07899 1.0271 103.8 22.1 .375 165
2019 04 23 16  16 56 27.501   +54 27 42.52  .07921 1.0271 103.7 22.1 .378 166
2019 04 23 17  16 56 57.038   +54 33 36.45  .07944 1.0270 103.6 22.1 .380 166
2019 04 23 18  16 57 26.542   +54 39 27.87  .07967 1.0269 103.4 22.1 .383 167
2019 04 23 19  16 57 56.012   +54 45 16.80  .07989 1.0268 103.3 22.1 .386 167
2019 04 23 20  16 58 25.450   +54 51 03.25  .08012 1.0268 103.2 22.2 .389 168
2019 04 23 21  16 58 54.853   +54 56 47.26  .08035 1.0267 103.1 22.2 .392 168
2019 04 23 22  16 59 24.224   +55 02 28.83  .08057 1.0266 103.0 22.2 .395 169
2019 04 23 23  16 59 53.560   +55 08 07.98  .08080 1.0265 102.9 22.2 .398 169
2019 04 24 00  17 00 22.862   +55 13 44.74  .08103 1.0265 102.8 22.2 .401 170
2019 04 24 01  17 00 52.130   +55 19 19.12  .08126 1.0264 102.6 22.2 .405 170
2019 04 24 02  17 01 21.363   +55 24 51.14  .08149 1.0263 102.5 22.2 .408 170